User: anonymous   Login
Location: Melbourne
(37.8170°S, 144.9670°E)
Time: 11:24:46
(UTC+10:00)
Language:

ERBS - Orbit

View from above orbital plane
View from above orbital plane
View from above satellite
View from above satellite

Ground track
Ground track

The orbit data is extracted from the following two-line orbital elements,

1 15354U 84108B   16121.79484754  .00005109  00000-0  13357-3 0  9995
2 15354  57.0084 109.8122 0016514  55.4355 304.8254 15.40417323734584
Epoch (UTC): 30 April 2016 19:04:34
Eccentricity: 0.0016514
inclination: 57.0084°
perigee height: 433 km
apogee height: 456 km
right ascension of ascending node: 109.8122°
argument of perigee: 55.4355°
revolutions per day: 15.40417323
mean anomaly at epoch: 304.8254°
orbit number at epoch: 73458

The dashed part of the orbit path shows where the satellite is in the earth's shadow,  

DLR